• Join FlightAware (Why Join?)
  • Login
  • US Flag GB Flag 
20:32 EST


 

Airport Tracker/Info


-or-


 

Live Flight TrackerFlight Track Log ✈ ASQ5685 ✈ 31-Jul-2013 ✈ KATL - KIAD

Flight Track Log - Related Links

Times and Time Zones

All times are in EDT time to prevent confusion due to time zone crossing. See the ASQ5685 flight status page for this flight to view local times or setup timezone preferences in your user account.

Time Position Orientation Groundspeed Altitude Reporting Facility
EDT Latitude Longitude Course Direction KTS MPH feet Rate Location/Type
09:29 33.6333 -84.3500 48° Northeast 235 270 2,600  Level Atlanta TRACON
09:30 33.6333 -84.2500 90° East 285 328 5,100 2,280 Climbing Atlanta TRACON
09:31 33.8516 -84.1725 73° East  Level Estimated
09:31 33.6500 -84.1500 79° East 302 348 7,500  Level Atlanta TRACON
09:32 33.9232 -84.0871 54° Northeast  Level Estimated
09:32 33.7150 -84.0389 55° Northeast 312 359 10,500  Level Atlanta Center
09:33 33.9012 -83.9687 103° East  Level FlightAware Approximate
09:33 33.7733 -83.9539 50° Northeast 319 367 11,600  Level Atlanta Center
09:34 33.9734 -83.8840 48° Northeast  Level Estimated
09:34 33.8358 -83.8586 52° Northeast 348 400 13,200  Level Atlanta Center
09:35 33.9025 -83.7561 52° Northeast 360 414 14,000 840 Climbing Atlanta Center
09:36 33.9711 -83.6481 53° Northeast 389 448 14,900 1,260 Climbing Atlanta Center
09:37 34.0353 -83.5425 54° Northeast 394 453 16,600 1,440 Climbing Atlanta Center
09:38 34.1039 -83.4392 51° Northeast 389 448 17,800 1,080 Climbing Atlanta Center
09:39 34.1700 -83.3358 52° Northeast 389 448 18,800 960 Climbing Atlanta Center
09:40 34.2278 -83.2397 54° Northeast 389 448 19,800 1,140 Climbing Atlanta Center
09:41 34.2939 -83.1361 52° Northeast 389 448 21,100 1,080 Climbing Atlanta Center
09:42 34.3536 -83.0297 56° Northeast 389 448 22,000 900 Climbing Atlanta Center
09:43 34.4217 -82.9233 52° Northeast 389 448 22,900 900 Climbing Atlanta Center
09:44 34.4853 -82.8167 54° Northeast 389 448 23,800 840 Climbing Atlanta Center
09:45 34.5550 -82.7097 52° Northeast 394 453 24,600 720 Climbing Atlanta Center
09:46 34.6247 -82.6000 52° Northeast 399 459 25,300 660 Climbing Atlanta Center
09:47 34.6986 -82.4850 52° Northeast 399 459 26,000 660 Climbing Atlanta Center
09:48 34.7658 -82.3675 55° Northeast 404 465 26,700 660 Climbing Atlanta Center
09:49 34.8353 -82.2547 53° Northeast 404 465 27,400 600 Climbing Atlanta Center
09:50 34.9025 -82.1419 54° Northeast 409 471 28,000 540 Climbing Atlanta Center
09:51 34.9758 -82.0311 51° Northeast 422 486 28,500 480 Climbing Atlanta Center
09:52 35.0447 -81.9128 55° Northeast 422 486 29,000 240 Climbing Atlanta Center
09:53 35.1092 -81.7867 58° Northeast 428 493 29,000  Level Atlanta Center
09:54 35.1778 -81.6578 57° Northeast 446 513 29,000  Level Atlanta Center
09:55 35.2439 -81.5286 58° Northeast 446 513 29,000  Level Atlanta Center
09:56 35.3122 -81.3994 57° Northeast 446 513 29,000  Level Atlanta Center
09:57 35.3783 -81.2725 57° Northeast 446 513 29,000  Level Atlanta Center
09:58 35.4422 -81.1428 59° Northeast 446 513 29,000  Level Atlanta Center
09:59 35.5100 -81.0156 57° Northeast 446 513 29,100 300 Climbing Atlanta Center
10:00 35.5778 -80.8878 57° Northeast 446 513 29,600 480 Climbing Atlanta Center
10:01 35.6453 -80.7600 57° Northeast 446 513 30,100 420 Climbing Atlanta Center
10:02 35.7028 -80.6478 58° Northeast 446 513 30,500 420 Climbing Atlanta Center
10:03 35.7739 -80.5067 58° Northeast 439 505 31,000 240 Climbing Atlanta Center
10:04 35.8331 -80.3914 58° Northeast 439 505 31,000  Level Atlanta Center
10:07 35.9953 -80.0642 58° Northeast 442 509 31,000  Level Washington Center
10:08 36.0597 -79.9547 54° Northeast 437 503 31,000  Level Washington Center
10:09 36.1311 -79.8303 55° Northeast 437 503 31,000  Level Washington Center
10:10 36.2092 -79.6878 56° Northeast 451 519 31,000 -360 Level Washington Center
10:11 36.2778 -79.5728 53° Northeast 451 519 30,400 -840 Descending Washington Center
10:12 36.3550 -79.4400 54° Northeast 459 528 29,400 -1,020 Descending Washington Center
10:13 36.4264 -79.2989 58° Northeast 469 540 28,400 -1,140 Descending Washington Center
10:14 36.5122 -79.1453 55° Northeast 485 558 27,200 -1,020 Descending Washington Center
10:15 36.5825 -79.0269 53° Northeast 480 552 26,400 -900 Descending Washington Center
10:16 36.6594 -78.8906 55° Northeast 475 547 25,400 -720 Descending Washington Center
10:17 36.7297 -78.7536 57° Northeast 475 547 25,000 -240 Descending Washington Center
10:18 36.8019 -78.6242 55° Northeast 465 535 25,000 -420 Level Washington Center
10:19 36.8986 -78.5189 41° Northeast 453 521 24,200 -960 Descending Washington Center
10:20 37.0072 -78.4294 33° Northeast 453 521 23,200 -1,080 Descending Washington Center
10:21 37.1303 -78.3325 32° Northeast 470 541 22,100 -600 Descending Washington Center
10:22 37.2347 -78.2422 35° Northeast 464 534 22,000 -60 Descending Washington Center
10:23 37.3344 -78.1619 33° Northeast 445 512 22,000  Level Washington Center
10:24 37.4278 -78.0842 33° Northeast 421 484 22,000  Level Washington Center
10:25 37.5256 -78.0008 34° Northeast 415 478 22,000  Level Washington Center
10:26 37.6189 -77.9225 34° Northeast 410 472 22,000 -660 Level Washington Center
10:27 37.7161 -77.8442 33° Northeast 410 472 20,700 -1,980 Descending Washington Center
10:28 37.8181 -77.7553 35° Northeast 419 482 18,100 -2,520 Descending Washington Center
10:29 37.9153 -77.6739 33° Northeast 425 489 15,800 -2,400 Descending Washington Center
10:30 38.0042 -77.5972 34° Northeast 408 470 13,300 -2,580 Descending Washington Center
10:31 38.0908 -77.5256 33° Northeast 382 440 10,800 -1,680 Descending Washington Center
10:32 38.1669 -77.4589 35° Northeast 353 406 10,000 -720 Descending Washington Center
10:33 38.2533 -77.4031 27° Northeast 312 359 9,300 -780 Descending Washington Center
10:34 38.3269 -77.3597 25° Northeast 290 334 8,300 -1,080 Descending Washington Center
10:35 38.4042 -77.3564 North 276 318 7,200 -1,080 Descending Washington Center
10:36 38.4814 -77.3606 358° North 270 311 6,200 -960 Descending Washington Center
10:37 38.5583 -77.3653 357° North 270 311 5,300 -900 Descending Washington Center
10:38 38.6378 -77.3644 360° North 270 311 4,500 -780 Descending Washington Center
10:39 38.7000 -77.3667 358° North 276 318 4,000 -300 Descending Potomac TRACON
10:40 38.7667 -77.3500 11° North 276 318 4,000  Level Potomac TRACON
10:41 38.8500 -77.3500 360° North 276 318 4,000  Level Potomac TRACON
10:42 38.9167 -77.3500 360° North 276 318 4,000  Level Potomac TRACON
10:43 39.0167 -77.3500 360° North 275 316 4,000  Level Potomac TRACON
10:44 39.0833 -77.3500 360° North 265 305 4,000  Level Potomac TRACON
10:45 39.1500 -77.3500 360° North 229 264 4,000 -360 Level Potomac TRACON
10:46 39.2167 -77.3333 11° North 235 270 3,300 -540 Descending Potomac TRACON
10:47 39.2500 -77.4000 303° West 235 270 3,000 -240 Descending Potomac TRACON
10:48 39.2000 -77.4333 207° Southwest 208 239 2,900 -360 Descending Potomac TRACON
10:49 39.1500 -77.4333 180° South 177 204 2,400 -480 Descending Potomac TRACON
10:50 39.1000 -77.4333 180° South 179 206 2,000 -240 Descending Potomac TRACON
10:51 39.0500 -77.4333 180° South 168 193 2,000 -240 Level Potomac TRACON
10:52 39.0167 -77.4333 180° South 148 170 1,600 -660 Descending Potomac TRACON
10:53 38.9833 -77.4333 180° South 139 160 800 -840 Descending Potomac TRACON
10:55 38.9474 -77.4599 191° South  Level Estimated
11:02 38.9474 -77.4599 191° South  Level Estimated
11:03 38.9474 -77.4599 191° South  Level Estimated